Other Public Products
Issued by NWS Grand Forks, ND

Home | Current Version | Previous Version | Text Only | Print | Product List | Glossary Off
Versions: 1 2 3 4 5 6 7 8 9 10 11 12 13 14 15 16 17 18 19 20 21 22 23 24 25 26 27 28 29 30 31 32 33 34 35 36 37 38 39 40 41 42 43 44 45 46 47 48 49 50

000
FPUS83 KFGF 241031
OPUFGF
PRAIRIE TO PINES WEATHER ROUNDUP
NATIONAL WEATHER SERVICE EASTERN NORTH DAKOTA/GRAND FORKS ND
500 AM CDT SUN JUL 24 2016

 **SATELLITE DATA USED TO AUGMENT SKY COVER AT AUTOMATED STATIONS**
 *****  WEATHER ACROSS EASTERN NORTH DAKOTA  *****

CITY           SKY/WX    TMP DP  RH WIND       PRES   REMARKS
GRAND FORKS    CLEAR     64  60  87 NW9       29.78R
GRAND FORKS AF CLEAR     65  60  83 NW13      29.79R
GRAND CITY NWS   N/A     61 N/A N/A NW13        N/A
BUXTON           N/A    N/A N/A N/A W3          N/A
DEVILS LAKE    NOT AVBL
FARGO          CLEAR     64  59  83 W10       29.82R
WAHPETON ARPT  SUNNY     63  57  82 W8        29.85R
$$

 *****  WEATHER ACROSS CENTRAL AND WESTERN NORTH DAKOTA  *****

CITY           SKY/WX    TMP DP  RH WIND       PRES   REMARKS
JAMESTOWN      CLEAR     63  59  87 W7        29.89R
BISMARCK       CLEAR     61  57  87 W7        30.00R
MINOT          CLEAR     66  55  67 W15       29.90F
MINOT AFB      CLEAR     59  56  88 W8        29.90S
GARRISON         N/A     60  57  89 W9        29.95R
WILLISTON      CLEAR     59  52  77 W10       30.00S
DICKINSON      CLEAR     52  49  89 W6        30.03F
HETTINGER      PTCLDY    51  47  86 NW6       30.08F
$$

 *****  OTHER OBSERVATIONS NORTHEAST NORTH DAKOTA  *****

CITY           SKY/WX    TMP DP  RH WIND       PRES   REMARKS
WALHALLA       FAIR      63  59  88 W10G16    29.78S
LANGDON        FAIR      57  57 100 W7        29.83R
CAVALIER       FAIR      63  57  82 NW10      29.77S
GRAFTON        FAIR      63  61  94 NW10      29.79S
CANDO          FAIR      59  59 100 W9        29.86S
FORT TOTTEN      N/A     64  60  88 NW7       29.95S
ROLLA            N/A     61  59  94 W9        29.85S
RUGBY          NOT AVBL
 ***** THE ABOVE OBSERVATIONS ARE NON NWS ARE NOT QUALITY
        CONTROLLED AND MAY MIS-REPORT RAIN FOR SNOW...
$$

 *****  OTHER OBSERVATIONS SOUTHEAST NORTH DAKOTA *****

CITY           SKY/WX    TMP DP  RH WIND       PRES   REMARKS
COOPERSTOWN    NOT AVBL
VALLEY CITY      N/A     63  63 100 W14       29.89S
OAKES            N/A    N/A N/A N/A MISG        N/A
GWINNER        FAIR      61  59  94 W9        29.89S
SHEYENNE NWR     N/A     63  58  83 NW8       29.95
BUFFALO          N/A     63  58  85 NW7         N/A
WYNDMERE         N/A     64  61  88 W7          N/A
 ***** THE ABOVE OBSERVATIONS ARE NON NWS ARE NOT QUALITY
       CONTROLLED AND MAY MIS-REPORT RAIN FOR SNOW...
$$

  *****  WEATHER ACROSS NORTHERN MINNESOTA  *****

CITY           SKY/WX    TMP DP  RH WIND       PRES   REMARKS
FLAG ISLAND    CLEAR     64  61  88 W15       29.67S
WARROAD        PTCLDY    63  59  88 W9        29.72S
ROSEAU         CLEAR     63  57  82 W9G16     29.72S
HALLOCK        CLEAR     63  61  94 W7        29.75S
THF RVR FALLS  CLEAR     62  60  93 W10       29.78S
HALSTAD        NOT AVBL
FOSSTON        CLEAR     61  59  94 W10       29.80R
BAUDETTE       CLEAR     66  63  90 W8        29.70F
WASKISH        CLEAR     68  63  83 W13G22    29.73S
CROOKSTON      CLEAR     61  61 100 W5        29.80R
$$
  *****  WEATHER ACROSS CENTRAL AND WEST MINNESOTA  *****

CITY           SKY/WX    TMP DP  RH WIND       PRES   REMARKS
BEMIDJI        CLEAR     64  63  94 W9        29.77S
PARK RAPIDS    CLEAR     67  64  90 W10       29.79S
WADENA         CLEAR     66  64  94 W6        29.81R
DETROIT LAKES  CLEAR     64  59  82 W10       29.83S
MOORHEAD       CLEAR     64  59  82 W14       29.83R
FERGUS FALLS   CLEAR     63  63 100 NW5       29.86R
ELBOW LAKE     FAIR      64  62  93 NW7       29.85R
MORRIS MN      CLEAR     66  64  94 NW8       29.84S
STAPLES        CLEAR     66  64  94 W6        29.80R
WHEATON        CLEAR     66  63  88 W6        29.87S
$$
  *****  WEATHER ELSEWHERE ACROSS MINNESOTA  *****

CITY           SKY/WX    TMP DP  RH WIND       PRES   REMARKS
DULUTH         FOG       66  66 100 NW3       29.74F VSB 1/2
INTRNTL FALLS  PTCLDY    66  65  96 SW6       29.69S
ELY            MOCLDY    66  64  94 W5        29.72F
CLOQUET        FOG       64  63  94 W6        29.74F VSB 3/4
BRAINERD       CLEAR     68  67  96 W5        29.78S
HIBBING        CLOUDY    63  63 100 SW3       29.74S FOG
ALEXANDRIA     CLEAR     69  65  86 NW10      29.84R
SAINT CLOUD    CLEAR     72  71  97 NW12      29.78R
MINNEAPOLIS    CLOUDY    75  70  84 NW7       29.77R
$$

  *****  WEATHER ACROSS SOUTH DAKOTA  *****

CITY           SKY/WX    TMP DP  RH WIND       PRES   REMARKS
SIOUX FALLS    PTCLDY    68  65  90 NW5       29.90S
BROOKINGS      CLEAR     66  65  96 NW5       29.91S FOG
WATERTOWN      CLEAR     69  63  81 NW12      29.92R
HURON          CLEAR     62  59  90 NW10      29.93S
SISSETON         N/A     66  58  75 NW12      29.86R
ABERDEEN       CLEAR     60  56  86 W7        29.94R
MITCHELL       CLEAR     66  63  90 W7        29.93S
PIERRE         CLEAR     65  54  67 NW9       29.97F
MOBRIDGE       CLEAR     61  55  81 NW3       29.99S
RAPID CITY     CLOUDY    64  48  56 N8        30.10S
$$

  *****  SOME WEATHER IN NEARBY STATES *****

CITY           SKY/WX    TMP DP  RH WIND       PRES   REMARKS
GLASGOW MT     CLEAR     57  53  86 E6        30.01F
GREAT FALLS MT CLEAR     52  40  63 SW12      30.12R
CHEYENNE WY    CLOUDY    69  48  47 W10       30.21R THUNDER
SCOTTSBLUFF NE CLOUDY    65  58  78 E6        30.06F
OMAHA NE       PTCLDY    79  73  82 NW8       29.83S
DES MOINES IA  MOCLDY    81  75  82 SW7       29.82S
DAVENPORT IA   CLEAR     80  75  84 S14       29.87F
CHICAGO IL     MOCLDY    71  69  93 S6        29.91R
EAU CLAIRE WI  CLOUDY    71  70  96 N5        29.78S
LA CROSSE WI   PTCLDY    76  73  91 S10       29.76F
$$

  *****  SOME NATIONAL WEATHER *****

CITY           SKY/WX    TMP DP  RH WIND       PRES   REMARKS
LA GUARDIA NY  PTCLDY    77  61  57 NE3       29.95R
RALEIGH NC     PTCLDY    75  72  90 SW3       30.01R
ATLANTA GA     PTCLDY    76  73  91 CALM      30.03S
NEW ORLEANS LA PTCLDY    83  76  79 SW3       29.94S HX  91
OKLAHOMA CITY  PTCLDY    74  71  91 S6        29.93R
ALBUQUERQUE NM CLOUDY    77  51  40 E8        30.11F
SALT LAKE CITY CLEAR     67  41  38 S5        30.06S
LOS ANGELES CA PTCLDY    70  64  81 E3        29.81S
BOISE ID       CLEAR     62  42  47 S3        30.05S
SEATTLE WA     CLEAR     59  53  80 N12       30.17F
$$

*** WEATHER ACROSS MANITOBA...SASKATCHEWAN AND ONTARIO ***
                ***ONTARIO***

CITY           SKY/WX    TMP DP  RH WIND       PRES   REMARKS
GERALDTON      CLOUDY    66  57  72 SE5       29.80F
THUNDER BAY    MOCLDY    64  61  88 E7        29.73F
SIOUX LOOKOUT  MOCLDY    64  63  94 S8        29.65S
TORONTO        PTCLDY    68  59  73 NE2       30.02R
BIG TROUT LK   CLOUDY    64  61  88 SE12G17   29.66F
PICKLE LAKE    NOT AVBL
DRYDEN         CLOUDY    66  64  94 S8        29.66S
KENORA         MOCLDY    66  64  94 W7        29.66F
$$
                *** MANITOBA***

CITY           SKY/WX    TMP DP  RH WIND       PRES   REMARKS
BRANDON        PTCLDY    57  55  94 W10       29.80S
DAUPHIN        CLEAR     59  57  94 W14       29.74R
ISLAND LAKE    LGT RAIN  61  61 100 NE6       29.57F
PILOT MOUND      N/A     57  55  94 W7          N/A
THE PAS        CLOUDY    61  59  94 N8        29.72R
THOMPSON       LGT RAIN  59  59 100 N6        29.70S FOG
WINNIPEG       PTCLDY    61  59  94 W12       29.72R
LYNN LAKE      CLEAR     54  54 100 MISG      29.76R
CHURCHILL      MOCLDY    54  52  94 N10       29.76
GILLAM         CLOUDY    61  59  94 NE10      29.70F
$$
                ***SASKATCHEWAN***

CITY           SKY/WX    TMP DP  RH WIND       PRES   REMARKS
ESTEVAN        CLEAR     57  55  94 W9        29.94S
KINDERSLEY     MOCLDY    57  54  88 VRB2      30.00R
LLOYDMINSTER   CLEAR     50  48  93 W8        29.95S
PRINCE ALBERT  PTCLDY    57  54  88 W8        29.85R
REGINA         PTCLDY    55  54  94 W10       29.94S
YORKTON        CLEAR     59  57  94 W12       29.82R   C1F1C2F2C3F3C4F4C5F5C6F6C7F7C8F8C9F9CaFaCbFbCcFcCdFdCe!


USA.gov is the U.S. government's official web portal to all federal, state and local government web resources and services.